Showing default

UNICORN-2L, 58727

Orbit data source: Space-Track

UNICORN-2L, 58727 is a payload satellite owned by Alba Orbital (DE) in SSO that was launched on Fri, 01 Dec 2023 UTC via an FALCON 9 launch vehicle from the Air Force Western Test Range (AFWTR). Payload-class satellites include a variety of spacecraft equipped with specific instruments for various scientific and technological missions. These include communications satellites like Starlink; space stations such as the ISS; scientific satellites like the Hubble; Earth observation satellites from companies like Planet Labs, Umbra, and HawkEye 360; GPS; miniature CubeSats for education and research; and military/defense satellites.

Loading next visibility...
Identifier
58727, 2023-185R
Orbit
SSO
Country
Flag of DEDE / GER
Related business
Manufacturer
Alba Orbital
Mission
Operational Commercial Imaging
Bus & Motor
POCKETQUBE 3P, Unknown motor
Mass
~0.75 kg wet, ~0.75 kg dry
Launch date (UTC)
2023-12-01 (3 years ago)
Launch vehicle
FALCON 9
Launch site
Air Force Western Test Range (AFWTR)
Object type
Payload
Rocket body
Debris
Shape & HBR
Box + 2 Pan, 0.2 m
Radar Cross Section
0.016 m², Medium (>0.1 m² and < 1m²)

Expand to show TLE details & history
Last TLE update: 1 week ago

TLE from 1 week ago
0 UNICORN-2L
1 58727U 23185R   26155.04399977  .00009145  00000-0  41413-3 0  9990
2 58727  97.5392 228.8878 0012625   5.4007 354.7362 15.21035919132799
Epoch: 2026-06-04T01:03Z
TLE epoch observation values (Epoch: 2026-06-04T01:03:21.580Z)
Latitude
-0.00002°
Longitude
-39.44604°
Altitude
497.15 km
Speed
7.621 km/s
True Right ascension
15h 15m 33s
True Declination
0° 00' 00"
Sunlit
Object was in full shadow at epoch
Visualization orbit readout
Latitude
Unknown
Longitude
Unknown
Altitude
Unknown
Speed
Unknown
Apparent Right ascension
Unknown
Apparent Declination
Unknown
Sunlit
N/A
Visualization observer readout
Local Sidereal Time
06:05:49
Azimuth
Unknown
Elevation
Unknown
Doppler factor
Unknown
Orbital elements
Apogee altitude
508.368 km
Perigee altitude
491.002 km
Semi-major axis
6,877.822 km
Eccentricity
0.00126
Inclination
97.5392°
RAAN
228.8878°
Arg. of periapsis
5.4007°
True anomaly
354.72291°
Mean anomaly
354.7362°
Eccentric anomaly
354.72956°
Mean motion
3.80511 °/min
Orbital period
94.61 mins
BSTAR
0.00041413
Loading maneuver chart data...
Computing Atmospheric mass density...
Loading historical data...
Loading historical data...
Loading historical data...
Loading historical data...
Loading historical data...
Loading historical data...
Loading historical data...

Documentation

Showing up to 5 results
|